Dublin, Ireland

8:45 PM IST on October 17, 2017 (GMT +0100)
Dublin International

Weather History for EIDW - December, 2012

Change the Weather History Date:

Friday, December 28, 2012

  Actual Average Record
Temperature  
Mean Temperature 48 °F -  
Max Temperature 55 °F 46 °F 55 °F (2007)
Min Temperature 41 °F 36 °F 26 °F (2000)
Degree Days  
Heating Degree Days 17    
Moisture  
Dew Point 47 °F    
Average Humidity 85    
Maximum Humidity 94    
Minimum Humidity 77    
Precipitation  
Precipitation 0.04 in 0.09 in - ()
Sea Level Pressure  
Sea Level Pressure 29.58 in    
Wind  
Wind Speed 17 mph ()    
Max Wind Speed 32 mph    
Max Gust Speed 54 mph    
Visibility 6.9 miles    
Events Rain    
Averages and records for this station are not official NWS values.
T = Trace of Precipitation, MM = Missing Value Source: Averaged Metar Reports

Daily Weather History Graph

Daily Weather History Graph

Search for Another Location

Airport or City:

Trip Planner

Search our weather history database for the weather conditions in past years. The results will help you decide how hot, cold, wet, or windy it might be!

Date:

Astronomy

Dec. 28, 2012 Rise Set
Actual Time 8:40 AM GMT 4:12 PM GMT
Civil Twilight 7:58 AM GMT 4:55 PM GMT
Nautical Twilight 7:12 AM GMT 5:41 PM GMT
Astronomical Twilight 6:30 AM GMT 6:23 PM GMT
Moon 4:45 PM GMT (12/28) 8:18 AM GMT (12/28)
Length of Visible Light 8h 57m
Length of Day
7h 31m
Full, 100% of the Moon is Illuminated
Dec 28
Full
Jan 5
Last Quarter
Jan 11
New
Jan 18
First Quarter
Jan 27
Full

Hourly Weather History & Observations

Time (GMT) Temp. Windchill Dew Point Humidity Pressure Visibility Wind Dir Wind Speed Gust Speed Precip Events Conditions
12:00 AM 42 °F - 39 °F 83% 29.90 in 12 mi SE 8.9 mph - - Rain Light Rain
12:00 AM 41.0 °F 36.4 °F 39.2 °F 93% 29.89 in 6.2 mi SSE 6.9 mph - N/A Rain Light Rain
12:30 AM 42.8 °F 37.0 °F 39.2 °F 87% 29.86 in 6.2 mi SE 10.4 mph - N/A Rain Light Rain
1:00 AM 42.8 °F 34.8 °F 39.2 °F 87% 29.83 in 6.2 mi SE 17.3 mph - N/A Rain Light Rain
1:30 AM 42.8 °F 35.1 °F 41.0 °F 93% 29.80 in 6.2 mi SE 16.1 mph - N/A Rain Light Rain
2:00 AM 42.8 °F 34.8 °F 41.0 °F 93% 29.80 in 6.2 mi SE 17.3 mph - N/A Rain Light Rain
2:30 AM 44.6 °F 36.9 °F 42.8 °F 93% 29.77 in 6.2 mi SE 18.4 mph - N/A Rain Light Rain
3:00 AM 44.6 °F 38.8 °F 42.8 °F 93% 29.74 in 6.2 mi SSE 11.5 mph - N/A   Mostly Cloudy
3:30 AM 48.2 °F - 46.4 °F 93% 29.71 in 6.2 mi South 10.4 mph - N/A   Mostly Cloudy
4:00 AM 50.0 °F - 48.2 °F 94% 29.71 in 6.2 mi SSW 19.6 mph - N/A   Mostly Cloudy
4:30 AM 51.8 °F - 48.2 °F 88% 29.68 in 6.2 mi SSW 18.4 mph - N/A   Mostly Cloudy
5:00 AM 51.8 °F - 48.2 °F 88% 29.68 in 6.2 mi SSW 18.4 mph - N/A   Mostly Cloudy
5:30 AM 51.8 °F - 48.2 °F 88% 29.65 in 6.2 mi SSW 20.7 mph 33.4 mph N/A   Mostly Cloudy
6:00 AM 52 °F - 48 °F 82% 29.68 in 19 mi SSW 20.1 mph - -   Partly Cloudy
6:00 AM 51.8 °F - 48.2 °F 88% 29.65 in 6.2 mi SSW 20.7 mph 32.2 mph N/A   Mostly Cloudy
6:30 AM 51.8 °F - 48.2 °F 88% 29.65 in 6.2 mi SSW 18.4 mph - N/A   Mostly Cloudy
7:00 AM 51.8 °F - 48.2 °F 88% 29.65 in 6.2 mi SSW 18.4 mph - N/A   Mostly Cloudy
7:30 AM 51.8 °F - 48.2 °F 88% 29.65 in 6.2 mi SSW 19.6 mph - N/A   Mostly Cloudy
8:00 AM 51.8 °F - 48.2 °F 88% 29.65 in 6.2 mi SSW 18.4 mph - N/A   Mostly Cloudy
8:30 AM 51.8 °F - 48.2 °F 88% 29.65 in 6.2 mi SSW 18.4 mph - N/A   Mostly Cloudy
9:00 AM 51.8 °F - 48.2 °F 88% 29.65 in 6.2 mi SSW 18.4 mph - N/A   Mostly Cloudy
9:30 AM 51.8 °F - 48.2 °F 88% 29.65 in 6.2 mi SSW 20.7 mph 34.5 mph N/A   Mostly Cloudy
10:00 AM 51.8 °F - 48.2 °F 88% 29.65 in 6.2 mi SSW 18.4 mph - N/A   Mostly Cloudy
10:30 AM 51.8 °F - 48.2 °F 88% 29.62 in 6.2 mi SSW 20.7 mph - N/A   Mostly Cloudy
11:00 AM 53.6 °F - 46.4 °F 77% 29.62 in 6.2 mi SSW 19.6 mph - N/A   Mostly Cloudy
12:00 PM 53 °F - 48 °F 77% 29.63 in 16 mi South 20.1 mph - -   Partly Cloudy
12:00 PM 53.6 °F - 48.2 °F 82% 29.62 in 6.2 mi South 17.3 mph - N/A   Mostly Cloudy
12:30 PM 53.6 °F - 48.2 °F 82% 29.59 in 6.2 mi SSW 20.7 mph 33.4 mph N/A   Mostly Cloudy
1:00 PM 53.6 °F - 48.2 °F 82% 29.56 in 6.2 mi SSW 23.0 mph 34.5 mph N/A   Mostly Cloudy
1:30 PM 53.6 °F - 48.2 °F 82% 29.56 in 6.2 mi SSW 20.7 mph 32.2 mph N/A   Mostly Cloudy
2:00 PM 53.6 °F - 48.2 °F 82% 29.56 in 6.2 mi SSW 18.4 mph - N/A   Mostly Cloudy
2:30 PM 53.6 °F - 48.2 °F 82% 29.53 in 6.2 mi SSW 24.2 mph 36.8 mph N/A   Mostly Cloudy
3:00 PM 53.6 °F - 46.4 °F 77% 29.53 in 6.2 mi South 24.2 mph - N/A   Mostly Cloudy
3:30 PM 53.6 °F - 48.2 °F 82% 29.50 in 6.2 mi South 27.6 mph 39.1 mph N/A   Mostly Cloudy
4:00 PM 53.6 °F - 48.2 °F 82% 29.47 in 6.2 mi South 27.6 mph - N/A   Mostly Cloudy
4:30 PM 53.6 °F - 46.4 °F 77% 29.47 in 6.2 mi South 26.5 mph 39.1 mph N/A   Mostly Cloudy
5:00 PM 53.6 °F - 46.4 °F 77% 29.47 in 6.2 mi South 28.8 mph 42.6 mph N/A   Mostly Cloudy
5:30 PM 53.6 °F - 48.2 °F 82% 29.44 in 6.2 mi South 25.3 mph 39.1 mph N/A   Mostly Cloudy
6:00 PM 53 °F - 48 °F 77% 29.46 in 16 mi South 24.6 mph - -   Partly Cloudy
6:00 PM 53.6 °F - 48.2 °F 82% 29.44 in 6.2 mi South 23.0 mph 35.7 mph N/A   Mostly Cloudy
6:30 PM 53.6 °F - 48.2 °F 82% 29.42 in 6.2 mi South 23.0 mph 38.0 mph N/A   Mostly Cloudy
7:00 PM 53.6 °F - 48.2 °F 82% 29.42 in 6.2 mi South 26.5 mph 41.4 mph N/A   Mostly Cloudy
7:30 PM 53.6 °F - 48.2 °F 82% 29.39 in 6.2 mi South 31.1 mph 48.3 mph N/A   Mostly Cloudy
8:00 PM 53.6 °F - 48.2 °F 82% 29.39 in 6.2 mi South 26.5 mph 43.7 mph N/A   Mostly Cloudy
8:30 PM 55.4 °F - 48.2 °F 77% 29.36 in 6.2 mi SSW 25.3 mph 38.0 mph N/A   Mostly Cloudy
9:00 PM 55.4 °F - 48.2 °F 77% 29.36 in 6.2 mi SSW 29.9 mph 44.9 mph N/A   Mostly Cloudy
9:30 PM 55.4 °F - 50.0 °F 82% 29.33 in 6.2 mi SSW 32.2 mph 46.0 mph N/A   Mostly Cloudy
10:00 PM 53.6 °F - 48.2 °F 82% 29.33 in 6.2 mi SSW 27.6 mph 40.3 mph N/A   Mostly Cloudy
10:30 PM 53.6 °F - 48.2 °F 82% 29.33 in 6.2 mi SSW 31.1 mph 54.1 mph N/A   Mostly Cloudy
11:00 PM 53.6 °F - 48.2 °F 82% 29.33 in 6.2 mi SSW 25.3 mph - N/A   Mostly Cloudy
11:30 PM 50.0 °F - 46.4 °F 87% 29.36 in 6.2 mi SW 27.6 mph 46.0 mph N/A Rain Light Rain Showers